Hourly Weather Wermelskirchen

Today, 27 October, Tuesday

Time Temperature Precipitation Wind Pressure Humidity
00:00 +7°C° 0 mm 3 mps 729 mmHg 81%
01:00 +7°C° 0 mm 3 mps 729 mmHg 82%
02:00 +7°C° 0 mm 3 mps 729 mmHg 83%
03:00 +7°C° 0 mm 3 mps 729 mmHg 84%
04:00 +7°C° 0 mm 3 mps 730 mmHg 84%
05:00 +7°C° 0 mm 3 mps 730 mmHg 85%
06:00 +7°C° 0 mm 3 mps 730 mmHg 85%
07:00 +7°C° 0 mm 4 mps 731 mmHg 81%
08:00 +8°C° 0 mm 4 mps 731 mmHg 77%
09:00 +8°C° 0 mm 5 mps 731 mmHg 73%
10:00 +9°C° 0 mm 5 mps 731 mmHg 71%
11:00 +9°C° 0 mm 5 mps 731 mmHg 68%
12:00 +9°C° 0 mm 6 mps 731 mmHg 66%
13:00 +9°C° 0 mm 5 mps 731 mmHg 65%
14:00 +9°C° 0 mm 5 mps 731 mmHg 65%
15:00 +9°C° 0 mm 5 mps 731 mmHg 64%
16:00 +9°C° 0 mm 5 mps 731 mmHg 67%
17:00 +8°C° 0 mm 5 mps 731 mmHg 70%
18:00 +7°C° 0 mm 5 mps 730 mmHg 72%
19:00 +8°C° 0.1 mm 5 mps 730 mmHg 74%
20:00 +8°C° 0.1 mm 5 mps 730 mmHg 76%
21:00 +8°C° 0.1 mm 5 mps 729 mmHg 78%
22:00 +9°C° 0.2 mm 5 mps 730 mmHg 80%
23:00 +9°C° 0.2 mm 5 mps 730 mmHg 82%

Tomorrow, 28 October, Wednesday

Time Temperature Precipitation Wind Pressure Humidity
00:00 +10°C° 0.2 mm 5 mps 730 mmHg 84%
01:00 +11°C° 0.4 mm 4 mps 730 mmHg 85%
02:00 +11°C° 0.4 mm 4 mps 731 mmHg 87%
03:00 +11°C° 0.4 mm 4 mps 731 mmHg 88%
04:00 +10°C° 0.2 mm 3 mps 731 mmHg 87%
05:00 +10°C° 0.2 mm 2 mps 732 mmHg 87%
06:00 +9°C° 0.2 mm 2 mps 732 mmHg 87%
07:00 +10°C° 0.3 mm 3 mps 733 mmHg 84%
08:00 +10°C° 0.3 mm 4 mps 733 mmHg 82%
09:00 +9°C° 0.3 mm 5 mps 734 mmHg 80%
10:00 +10°C° 0.2 mm 5 mps 734 mmHg 75%
11:00 +10°C° 0.2 mm 5 mps 734 mmHg 70%
12:00 +11°C° 0.2 mm 6 mps 734 mmHg 65%
13:00 +12°C° 0 mm 5 mps 734 mmHg 66%
14:00 +10°C° 0 mm 5 mps 734 mmHg 66%
15:00 +11°C° 0 mm 4 mps 734 mmHg 66%
16:00 +11°C° 0 mm 4 mps 734 mmHg 67%
17:00 +10°C° 0 mm 4 mps 734 mmHg 69%
18:00 +10°C° 0 mm 4 mps 734 mmHg 70%
19:00 +9°C° 0.2 mm 5 mps 734 mmHg 74%
20:00 +9°C° 0.2 mm 5 mps 734 mmHg 77%
21:00 +9°C° 0.2 mm 6 mps 734 mmHg 81%
22:00 +9°C° 0.4 mm 6 mps 734 mmHg 82%
23:00 +8°C° 0.4 mm 6 mps 734 mmHg 83%

Day after tomorrow, 29 October, Thursday

Time Temperature Precipitation Wind Pressure Humidity
00:00 +8°C° 0.4 mm 6 mps 734 mmHg 83%
01:00 +8°C° 1 mm 5 mps 734 mmHg 84%
02:00 +8°C° 1 mm 5 mps 735 mmHg 84%
03:00 +7°C° 1 mm 5 mps 735 mmHg 85%
04:00 +7°C° 0.3 mm 5 mps 736 mmHg 84%
05:00 +7°C° 0.3 mm 5 mps 736 mmHg 83%
06:00 +7°C° 0.3 mm 4 mps 737 mmHg 83%
07:00 +7°C° 0.5 mm 5 mps 737 mmHg 80%
08:00 +7°C° 0.5 mm 5 mps 738 mmHg 78%
09:00 +8°C° 0.5 mm 5 mps 739 mmHg 76%
10:00 +8°C° 0.2 mm 5 mps 739 mmHg 73%
11:00 +8°C° 0.2 mm 5 mps 740 mmHg 71%
12:00 +9°C° 0.2 mm 5 mps 740 mmHg 69%
13:00 +10°C° 0 mm 4 mps 740 mmHg 70%
14:00 +10°C° 0 mm 4 mps 741 mmHg 71%
15:00 +10°C° 0 mm 3 mps 741 mmHg 73%
16:00 +9°C° 0 mm 3 mps 741 mmHg 76%
17:00 +9°C° 0 mm 2 mps 742 mmHg 79%
18:00 +8°C° 0 mm 2 mps 742 mmHg 82%
19:00 +8°C° 0.1 mm 2 mps 742 mmHg 84%
20:00 +9°C° 0.1 mm 2 mps 742 mmHg 86%
21:00 +9°C° 0.1 mm 3 mps 743 mmHg 88%
22:00 +9°C° 0.7 mm 3 mps 742 mmHg 89%
23:00 +9°C° 0.7 mm 3 mps 742 mmHg 89%

30 October, Friday

Time Temperature Precipitation Wind Pressure Humidity
00:00 +9°C° 0.7 mm 3 mps 742 mmHg 90%
01:00 +10°C° 0.4 mm 3 mps 742 mmHg 90%
02:00 +10°C° 0.4 mm 3 mps 742 mmHg 89%
03:00 +10°C° 0.4 mm 3 mps 741 mmHg 89%
04:00 +10°C° 0 mm 3 mps 742 mmHg 88%
05:00 +10°C° 0 mm 3 mps 742 mmHg 88%
06:00 +10°C° 0 mm 3 mps 742 mmHg 88%
07:00 +10°C° 0 mm 3 mps 742 mmHg 87%
08:00 +11°C° 0 mm 4 mps 742 mmHg 86%
09:00 +11°C° 0 mm 4 mps 742 mmHg 85%
10:00 +12°C° 0 mm 4 mps 742 mmHg 83%
11:00 +12°C° 0 mm 4 mps 743 mmHg 80%
12:00 +13°C° 0 mm 4 mps 743 mmHg 78%
13:00 +13°C° 0 mm 4 mps 743 mmHg 79%
14:00 +13°C° 0 mm 4 mps 743 mmHg 80%
15:00 +13°C° 0 mm 3 mps 743 mmHg 81%
16:00 +12°C° 0 mm 3 mps 744 mmHg 82%
17:00 +12°C° 0 mm 3 mps 744 mmHg 83%
18:00 +12°C° 0 mm 3 mps 744 mmHg 84%
19:00 +12°C° 0 mm 3 mps 744 mmHg 84%
20:00 +11°C° 0 mm 3 mps 744 mmHg 85%
21:00 +11°C° 0 mm 3 mps 744 mmHg 85%
22:00 +11°C° 0 mm 3 mps 744 mmHg 85%
23:00 +12°C° 0 mm 2 mps 744 mmHg 86%

31 October, Saturday

Time Temperature Precipitation Wind Pressure Humidity
00:00 +12°C° 0 mm 2 mps 744 mmHg 86%
01:00 +10°C° 0 mm 2 mps 744 mmHg 86%
02:00 +10°C° 0 mm 2 mps 744 mmHg 86%
03:00 +10°C° 0 mm 2 mps 744 mmHg 86%
04:00 +9°C° 0 mm 2 mps 744 mmHg 87%
05:00 +9°C° 0 mm 2 mps 744 mmHg 88%
06:00 +8°C° 0 mm 2 mps 743 mmHg 90%
07:00 +9°C° 0 mm 2 mps 743 mmHg 86%
08:00 +10°C° 0 mm 2 mps 743 mmHg 81%
09:00 +12°C° 0 mm 2 mps 743 mmHg 77%
10:00 +12°C° 0 mm 3 mps 743 mmHg 74%
11:00 +13°C° 0 mm 3 mps 743 mmHg 70%
12:00 +14°C° 0 mm 3 mps 742 mmHg 66%
13:00 +14°C° 0 mm 3 mps 742 mmHg 68%
14:00 +14°C° 0 mm 3 mps 741 mmHg 70%
15:00 +14°C° 0 mm 3 mps 741 mmHg 71%
16:00 +13°C° 0 mm 3 mps 741 mmHg 75%
17:00 +12°C° 0 mm 4 mps 741 mmHg 78%
18:00 +11°C° 0 mm 4 mps 741 mmHg 81%
19:00 +11°C° 0 mm 3 mps 741 mmHg 82%
20:00 +10°C° 0 mm 3 mps 741 mmHg 83%
21:00 +10°C° 0 mm 3 mps 741 mmHg 83%
22:00 +10°C° 0 mm 2 mps 741 mmHg 85%
23:00 +10°C° 0 mm 2 mps 741 mmHg 86%

1 November, Sunday

Time Temperature Precipitation Wind Pressure Humidity
00:00 +10°C° 0 mm 2 mps 741 mmHg 87%
01:00 +10°C° 0 mm 2 mps 741 mmHg 88%
02:00 +9°C° 0 mm 2 mps 741 mmHg 89%
03:00 +9°C° 0 mm 2 mps 741 mmHg 90%
04:00 +9°C° 0 mm 2 mps 741 mmHg 91%
05:00 +9°C° 0 mm 3 mps 741 mmHg 91%
06:00 +9°C° 0 mm 3 mps 741 mmHg 91%
07:00 +10°C° 0 mm 3 mps 741 mmHg 89%
08:00 +11°C° 0 mm 3 mps 741 mmHg 87%
09:00 +12°C° 0 mm 3 mps 741 mmHg 84%
10:00 +13°C° 0 mm 3 mps 741 mmHg 83%
11:00 +14°C° 0 mm 4 mps 741 mmHg 81%
12:00 +14°C° 0 mm 4 mps 740 mmHg 80%
13:00 +14°C° 0 mm 4 mps 740 mmHg 80%
14:00 +14°C° 0 mm 4 mps 740 mmHg 80%
15:00 +15°C° 0 mm 4 mps 740 mmHg 80%
16:00 +14°C° 0 mm 4 mps 740 mmHg 81%
17:00 +14°C° 0 mm 3 mps 740 mmHg 82%
18:00 +14°C° 0 mm 3 mps 740 mmHg 83%
19:00 +14°C° 0 mm 3 mps 740 mmHg 84%
20:00 +14°C° 0 mm 3 mps 740 mmHg 84%
21:00 +14°C° 0 mm 3 mps 740 mmHg 85%
22:00 +14°C° 0 mm 3 mps 740 mmHg 85%
23:00 +14°C° 0 mm 3 mps 740 mmHg 86%
Show more

We Need Your Consent

Meteoprog and our Service Providers may store and access personal data such as cookies, device identifiers or other similar technologies on your device and process such data to personalise content and ads, as well as provide social media features and to analyse the traffic.

  • Store and/or access information on your device

    Cookies, device identifiers or other information can be stored or accessed on your device for the purposes indicated above.

  • Personalised ads and content, ad and content measurement, audience insights, and products development

    Ads and content can be personalised based on a profile. More data can be added to better personalise ads and content. Ad and content performance can be measured. Insights about the audience who saw the ads and content can be derived. Such data can be used to develop or improve user’s experience, systems and software.

By clicking ‘I Agree’ you will allow the use of indicated cookies, device identifiers, web beacons or other similar technologies. Your settings can be changed in the browser on your device.

For certain purposes, legitimate interests may be relied on, rather than consent. You can read more about this in our Privacy and Cookie Policy.